MDT,Max TemperatureF,Mean TemperatureF,Min TemperatureF,Max Dew PointF,MeanDew PointF,Min DewpointF,Max Humidity, Mean Humidity, Min Humidity, Max Sea Level PressureIn, Mean Sea Level PressureIn, Min Sea Level PressureIn, Max VisibilityMiles, Mean VisibilityMiles, Min VisibilityMiles, Max Wind SpeedMPH, Mean Wind SpeedMPH, Max Gust SpeedMPH,PrecipitationIn, CloudCover, Events, WindDirDegrees
2013-8-1,83,71,58,64,59,52,87,66,45,30.06,29.95,29.84,10,10,7,24,7,29,0.02,2,Rain-Thunderstorm,86
2013-8-2,75,66,57,61,56,51,90,72,53,30.08,29.97,29.85,10,10,5,28,13,33,0.14,5,Rain,89
2013-8-3,79,69,58,61,59,56,93,73,52,30.17,30.10,30.02,10,10,4,21,11,26,0.10,5,Rain,105
2013-8-4,85,74,62,66,62,57,87,69,51,30.09,29.98,29.86,10,10,10,18,10,24,T,4,Rain,118
2013-8-5,87,75,62,66,63,56,93,68,42,29.97,29.88,29.79,10,10,5,41,8,51,0.10,3,Rain-Thunderstorm,66
2013-8-6,84,72,59,61,57,51,90,62,34,29.97,29.88,29.75,10,9,2,22,11,28,0.49,2,Rain-Thunderstorm,301
2013-8-7,85,70,55,61,57,51,93,63,32,30.00,29.94,29.88,10,10,8,33,6,45,0.03,2,Rain-Thunderstorm,121
2013-8-8,81,69,56,61,58,54,93,68,42,30.05,29.99,29.92,10,10,10,15,6,22,0.00,2,,60
2013-8-9,80,70,60,63,60,56,90,71,51,30.15,30.10,30.04,10,10,8,16,8,21,0.06,5,Rain-Thunderstorm,81
2013-8-10,80,70,60,64,61,55,97,76,54,30.13,30.05,29.96,10,10,10,17,9,22,0.03,4,Rain,78
2013-8-11,73,67,60,63,61,59,100,82,64,30.15,30.08,29.98,10,7,0,30,5,35,0.05,5,Fog-Rain-Thunderstorm,74
2013-8-12,83,70,57,64,60,56,97,72,47,30.11,30.05,30.01,10,8,0,14,7,23,0.00,2,Fog,95
2013-8-13,85,73,60,63,60,57,97,72,46,30.18,30.11,30.03,10,10,3,24,8,36,0.18,4,Rain-Thunderstorm,99
2013-8-14,77,68,58,61,59,57,97,76,54,30.11,30.05,29.99,10,10,7,16,7,22,0.00,2,,103
2013-8-15,75,67,59,61,58,57,100,79,57,30.10,30.04,29.99,10,8,2,15,7,18,0.00,6,,104
2013-8-16,83,70,57,63,60,57,100,74,47,30.12,30.06,29.98,10,7,0,15,8,20,0.00,3,Fog,133
2013-8-17,90,76,61,66,63,59,93,67,41,29.98,29.91,29.85,10,10,10,20,10,26,0.00,0,,153
2013-8-18,85,74,62,71,66,61,93,76,58,29.94,29.87,29.82,10,9,2,20,6,23,0.00,0,,186
2013-8-19,94,79,64,70,61,48,100,61,22,29.97,29.87,29.81,10,7,0,7,6,8,0.00,1,Fog,270
2013-8-20,97,78,59,68,63,57,90,63,35,29.83,29.77,29.72,10,10,10,15,4,17,T,0,Thunderstorm,323
2013-8-21,82,71,60,67,61,57,93,71,48,30.04,29.92,29.79,10,10,7,21,6,25,0.05,1,Rain,84
2013-8-22,83,71,59,64,59,54,90,71,51,30.17,30.08,30.01,10,10,10,17,5,21,0.00,3,,91
2013-8-23,93,79,64,69,65,62,93,66,38,30.00,29.87,29.73,10,9,7,18,10,24,0.00,1,,133
2013-8-24,102,85,67,66,58,50,87,53,19,29.75,29.73,29.70,10,10,10,20,8,24,0.00,0,,207
2013-8-25,100,82,64,65,61,57,78,53,28,29.88,29.85,29.77,10,10,10,13,6,16,0.00,0,,21
2013-8-26,103,85,66,66,61,51,87,54,21,29.83,29.79,29.75,10,10,10,22,7,28,0.00,0,,270
2013-8-27,100,82,64,71,65,61,93,61,29,29.88,29.82,29.78,10,10,9,15,7,22,0.00,0,,170
2013-8-28,89,79,68,70,66,61,84,67,50,30.03,29.91,29.81,10,10,10,22,8,28,0.01,2,Rain-Thunderstorm,93
2013-8-29,99,82,64,65,61,56,93,60,27,29.94,29.87,29.81,10,10,10,20,7,24,0.00,0,,356
2013-8-30,95,78,60,65,60,58,90,61,32,30.00,29.92,29.82,10,10,10,14,5,20,0.00,0,,189
2013-8-31,94,75,55,60,52,42,84,53,21,29.98,29.85,29.78,10,10,10,25,10,33,0.00,0,,324